Waarnemingen

Advertentie
Mijn weer
Koksijde, België (6400): temperatuur & dauwpunt: 23.01.2020 17:00:00 - 29.01.2020 17:00:00 (CET)Koksijde, België (6400): windsnelheid & windstoten: 23.01.2020 17:00:00 - 29.01.2020 17:00:00 (CET)Koksijde, België (6400): windrichting: 23.01.2020 17:00:00 - 29.01.2020 17:00:00 (CET)Koksijde, België (6400): luchtdruk: 23.01.2020 17:00:00 - 29.01.2020 17:00:00 (CET)Koksijde, België (6400): zicht: 23.01.2020 17:00:00 - 29.01.2020 17:00:00 (CET)
Datum & Tijd tt [°C] td [°C] ff [km/u] ff [kn] fx [km/u] fx [kn] dd ppp [hPa] vv [km]
29.01.2020 17:00:00 8,1 3,0 18 10 40 21 WZW 1012,1 17
29.01.2020 16:00:00 7,9 2,7 25 14 - - W 1011,6 15
29.01.2020 15:00:00 8,0 2,6 32 18 50 27 W 1011,6 15
29.01.2020 14:00:00 7,6 1,9 32 18 50 27 W 1011,2 15
29.01.2020 13:00:00 7,5 1,9 32 18 - - W 1010,6 15
29.01.2020 12:00:00 7,2 2,0 29 16 50 27 W 1010,6 15
29.01.2020 11:00:00 6,8 1,3 32 18 50 27 W 1009,7 15
29.01.2020 10:00:00 6,3 1,0 32 18 - - W 1008,8 15
29.01.2020 09:00:00 5,8 0,8 29 16 50 27 W 1008,2 12
29.01.2020 08:00:00 5,9 1,0 32 18 50 27 W 1007,3 12
29.01.2020 07:00:00 5,6 1,1 32 18 - - W 1006,7 11
29.01.2020 06:00:00 5,5 1,2 29 16 47 25 W 1006,0 13
29.01.2020 05:00:00 3,2 0,9 15 8 47 25 WZW 1005,3 10
29.01.2020 04:00:00 5,2 1,2 29 16 - - W 1004,8 15
29.01.2020 03:00:00 5,4 0,9 32 18 50 27 W 1004,7 13
29.01.2020 02:00:00 5,3 1,0 31 17 47 25 W 1004,0 10
29.01.2020 01:00:00 5,5 1,2 29 16 - - W 1003,2 14
29.01.2020 00:00:00 5,4 1,2 32 18 50 27 W 1002,2 16
28.01.2020 23:00:00 5,6 1,2 29 16 50 27 W 1001,7 16
28.01.2020 22:00:00 5,8 1,4 29 16 - - W 1000,7 10
28.01.2020 21:00:00 3,4 1,8 18 10 32 18 ZW 1000,5 18
28.01.2020 20:00:00 3,2 1,6 25 14 36 19 ZZW 999,9 20
28.01.2020 19:00:00 4,5 1,7 22 12 - - ZZW 999,6 20
28.01.2020 18:00:00 5,5 1,0 18 10 36 19 ZW 999,2 18
28.01.2020 17:00:00 6,8 1,2 25 14 47 25 WZW 999,2 20
28.01.2020 16:00:00 7,2 0,7 36 19 - - W 999,5 20
28.01.2020 15:00:00 6,4 0,0 32 18 54 29 WZW 999,3 20
28.01.2020 14:00:00 6,0 -0,6 36 19 54 29 W 998,9 20
28.01.2020 13:00:00 6,1 0,8 36 19 - - W 998,0 20
28.01.2020 12:00:00 5,8 0,3 36 19 54 29 W 997,4 20
28.01.2020 11:00:00 5,4 0,2 36 19 54 29 W 996,2 20
28.01.2020 10:00:00 5,4 0,3 40 21 - - W 994,9 20
28.01.2020 09:00:00 5,3 1,0 37 20 58 31 W 993,4 10
28.01.2020 08:00:00 5,9 1,1 39 21 58 31 W 992,2 10
28.01.2020 07:00:00 4,6 2,3 29 16 - - WZW 991,2 20
28.01.2020 06:00:00 4,9 3,4 25 14 54 29 ZW 990,6 20
28.01.2020 05:00:00 5,0 3,1 29 16 50 27 WZW 990,6 8
28.01.2020 04:00:00 5,5 4,5 16 9 - - ZZW 991,3 10
28.01.2020 03:00:00 6,4 4,6 22 12 32 18 ZW 992,3 4,5
28.01.2020 02:00:00 6,0 4,7 22 12 50 27 ZW 993,4 3,1
28.01.2020 01:00:00 5,9 4,5 18 10 - - ZZW 994,2 16
28.01.2020 00:00:00 6,8 5,3 26 14 43 23 WZW 994,8 10
27.01.2020 23:00:00 7,0 6,1 11 6 25 14 WZW 994,8 13
27.01.2020 22:00:00 7,1 5,7 18 10 - - WZW 995,0 19
27.01.2020 21:00:00 8,0 6,8 29 16 40 21 ZZW 994,3 6
27.01.2020 20:00:00 8,0 7,0 22 12 40 21 Z 995,4 7
27.01.2020 19:00:00 8,4 7,0 22 12 - - Z 997,0 20
27.01.2020 18:00:00 8,5 6,8 18 10 25 14 Z 998,6 18
27.01.2020 17:00:00 8,8 7,0 18 10 29 16 Z 1000,0 14
27.01.2020 16:00:00 9,3 7,2 18 10 - - Z 1001,3 10
27.01.2020 15:00:00 9,1 7,1 18 10 29 16 Z 1002,7 10
27.01.2020 14:00:00 9,1 7,3 22 12 32 18 ZZW 1003,5 10
27.01.2020 13:00:00 8,8 7,0 22 12 - - ZZW 1004,5 10
27.01.2020 12:00:00 8,3 6,7 18 10 22 12 ZZW 1005,6 10
27.01.2020 11:00:00 7,8 6,4 14 8 22 12 ZZW 1006,2 10
27.01.2020 10:00:00 7,5 6,2 15 8 - - ZZW 1006,5 10
27.01.2020 09:00:00 6,9 5,9 14 8 18 10 ZZW 1006,5 10
27.01.2020 08:00:00 7,7 6,8 11 6 18 10 Z 1006,7 8
27.01.2020 07:00:00 7,9 7,0 13 7 - - ZZW 1007,0 8
27.01.2020 06:00:00 8,1 7,3 14 8 22 12 ZZW 1007,2 13
27.01.2020 05:00:00 8,5 8,0 14 8 29 16 ZW 1007,6 14
27.01.2020 04:00:00 8,5 8,0 22 12 - - ZZW 1007,7 5
27.01.2020 03:00:00 8,3 7,7 14 8 29 16 ZZW 1007,8 8
27.01.2020 02:00:00 8,4 7,4 18 10 32 18 ZZW 1008,3 12
27.01.2020 01:00:00 8,3 7,1 25 14 - - ZZW 1008,6 12
27.01.2020 00:00:00 7,8 7,0 24 13 43 23 Z 1008,8 5
26.01.2020 23:00:00 8,1 6,3 29 16 43 23 Z 1009,2 11
26.01.2020 22:00:00 7,7 6,3 24 13 - - Z 1009,8 8
26.01.2020 21:00:00 7,2 6,0 22 12 32 18 Z 1010,7 4,7
26.01.2020 20:00:00 7,1 5,7 24 13 32 18 Z 1011,2 4,5
26.01.2020 19:00:00 7,1 5,4 22 12 - - Z 1011,7 7
26.01.2020 18:00:00 6,9 5,2 18 10 25 14 Z 1011,8 7
26.01.2020 17:00:00 7,0 5,4 18 10 32 18 Z 1012,5 6
26.01.2020 16:00:00 7,4 5,8 22 12 - - ZZW 1013,0 6
26.01.2020 15:00:00 7,5 6,0 22 12 32 18 ZZW 1013,2 5
26.01.2020 14:00:00 7,3 5,9 22 12 29 16 Z 1013,3 4,2
26.01.2020 13:00:00 7,6 5,9 14 8 - - Z 1014,0 5
26.01.2020 12:00:00 5,2 4,6 14 8 25 14 Z 1014,6 2,1
26.01.2020 11:00:00 4,6 4,0 11 6 14 8 ZZO 1015,1 2,2
26.01.2020 10:00:00 3,9 3,6 7 4 - - ZZO 1015,2 1,8
26.01.2020 09:00:00 2,9 2,6 9 5 11 6 Z 1015,3 1,6
26.01.2020 08:00:00 1,7 1,6 7 4 11 6 N 1015,1 1,2
26.01.2020 07:00:00 2,2 2,0 5 3 - - ZZO 1015,1 1,7
26.01.2020 06:00:00 2,2 2,2 7 4 11 6 Z 1015,2 0,9
26.01.2020 05:00:00 3,2 3,0 7 4 11 6 Z 1015,3 1,6
26.01.2020 04:00:00 3,7 3,3 7 4 - - Z 1015,7 1,8
26.01.2020 03:00:00 3,7 3,5 11 6 22 12 ZZO 1016,1 1,8
26.01.2020 02:00:00 3,5 3,5 11 6 18 10 ZZO 1016,6 1,6
26.01.2020 01:00:00 3,5 3,5 11 6 - - ZZO 1017,2 1,0
26.01.2020 00:00:00 3,2 3,2 14 8 22 12 Z 1017,7 0,3
25.01.2020 23:00:00 3,2 3,2 14 8 22 12 ZZO 1018,2 0,2
25.01.2020 22:00:00 3,0 3,0 11 6 - - ZZO 1018,7 0,2
25.01.2020 21:00:00 2,7 2,7 14 8 22 12 ZZO 1018,8 0,2
25.01.2020 20:00:00 2,5 2,5 14 8 22 12 ZZO 1019,2 0,2
25.01.2020 19:00:00 2,5 2,5 14 8 - - ZZO 1019,5 0,2
25.01.2020 18:00:00 2,2 2,2 11 6 22 12 ZZO 1019,3 0,1
25.01.2020 17:00:00 2,0 2,0 14 8 22 12 ZZO 1019,3 0,2
25.01.2020 16:00:00 1,7 1,6 11 6 - - ZO 1019,6 0,3
25.01.2020 15:00:00 1,5 1,4 13 7 18 10 ZO 1020,2 0,7
25.01.2020 14:00:00 0,8 0,7 11 6 18 10 ZO 1021,2 1,5
25.01.2020 13:00:00 0,5 0,4 11 6 - - ZZO 1021,8 0,7
25.01.2020 12:00:00 0,2 0,1 7 4 14 8 ZZO 1022,6 0,7
25.01.2020 11:00:00 0,0 0,0 11 6 18 10 Z 1022,7 0,3
25.01.2020 10:00:00 -0,6 -0,6 11 6 - - Z 1022,5 0,3
25.01.2020 09:00:00 -0,6 -0,7 11 6 22 12 ZZO 1022,5 0,4
25.01.2020 08:00:00 -0,5 -0,7 13 7 18 10 ZZO 1022,1 1,3
25.01.2020 07:00:00 0,1 0,0 11 6 - - Z 1022,0 0,7
25.01.2020 06:00:00 0,3 -0,1 11 6 22 12 Z 1021,7 1,3
25.01.2020 05:00:00 0,2 -0,1 11 6 22 12 Z 1021,8 1,2
25.01.2020 04:00:00 0,5 0,0 7 4 - - Z 1022,2 1,7
25.01.2020 03:00:00 0,8 0,2 7 4 14 8 Z 1022,5 1,5
25.01.2020 02:00:00 1,1 0,4 9 5 18 10 Z 1022,7 1,7
25.01.2020 01:00:00 1,1 0,4 11 6 - - Z 1023,2 1,7
25.01.2020 00:00:00 1,2 0,4 7 4 14 8 Z 1023,2 1,8
24.01.2020 23:00:00 1,2 0,5 7 4 14 8 Z 1023,3 1,7
24.01.2020 22:00:00 1,3 0,5 11 6 - - ZZW 1023,7 1,7
24.01.2020 21:00:00 1,6 0,8 7 4 14 8 ZZW 1024,0 1,7
24.01.2020 20:00:00 1,7 0,9 7 4 14 8 ZZW 1023,7 1,7
24.01.2020 19:00:00 1,7 1,0 11 6 - - Z 1023,3 2,0
24.01.2020 18:00:00 2,0 1,2 11 6 18 10 Z 1022,8 2,0
24.01.2020 17:00:00 2,2 1,6 11 6 18 10 Z 1022,6 2,0
24.01.2020 16:00:00 2,2 1,8 11 6 - - Z 1022,7 2,0
24.01.2020 15:00:00 2,0 1,8 7 4 18 10 ZZW 1023,2 1,8
24.01.2020 14:00:00 1,8 1,6 11 6 18 10 Z 1024,0 1,6
24.01.2020 13:00:00 1,7 1,5 11 6 - - Z 1024,5 1,6
24.01.2020 12:00:00 1,5 1,3 8 4 14 8 Z 1024,9 1,5
24.01.2020 11:00:00 1,4 1,3 7 4 11 6 Z 1024,9 1,5
24.01.2020 10:00:00 1,4 1,1 7 4 - - ZZW 1024,7 1,5
24.01.2020 09:00:00 1,6 1,4 11 6 14 8 Z 1024,5 0,6
24.01.2020 08:00:00 1,7 1,6 7 4 11 6 Z 1024,2 0,7
24.01.2020 07:00:00 2,0 1,9 7 4 - - ZZW 1024,0 0,7
24.01.2020 06:00:00 2,2 2,2 7 4 14 8 ZZO 1024,0 0,5
24.01.2020 05:00:00 2,5 2,4 4 2 7 4 N 1024,5 0,4
24.01.2020 04:00:00 2,5 2,5 4 2 - - N 1024,7 0,6
24.01.2020 03:00:00 2,8 2,3 4 2 7 4 N 1025,4 1,0
24.01.2020 02:00:00 3,0 2,5 4 2 11 6 N 1026,4 1,3
24.01.2020 01:00:00 3,5 2,3 7 4 - - ZO 1026,7 1,4
24.01.2020 00:00:00 3,7 2,4 4 2 11 6 N 1026,9 1,4
23.01.2020 23:00:00 3,7 2,1 7 4 14 8 OZO 1027,0 1,6
23.01.2020 22:00:00 4,0 1,8 11 6 - - O 1027,0 2,6
23.01.2020 21:00:00 4,3 2,4 7 4 11 6 ONO 1027,5 3,6
23.01.2020 20:00:00 4,3 2,6 4 2 7 4 N 1027,5 4,5
23.01.2020 19:00:00 4,2 2,6 4 2 - - N 1027,9 6
23.01.2020 18:00:00 3,7 2,0 7 4 11 6 O 1028,2 6
23.01.2020 17:00:00 6,0 3,2 7 4 14 8 O 1028,5 7

tt = temperatuur
td = dauwpunt
ff = windsnelheid
fx = windstoten
dd = windrichting
ppp = luchtdruk
vv = zicht

Weerstations in de omgeving